(69574) = 1998 BR35

Discovered at Kitt Peak on 1998-01-28 by Spacewatch.

Orbit

Orbit type: Main Belt

Note: WebGL enabled browser required.

epoch2024-03-31.0
epoch JD2460400.5
perihelion date2021-01-28.90063
perihelion JD2459243.40063
argument of perihelion (°)123.07621
ascending node (°)131.74364
inclination (°)6.82736
eccentricity0.0900512
perihelion distance (AU)2.1622039
Tisserand w.r.t. Jupiter3.5
ΔV w.r.t. Earth (km/sec)9.4
semimajor axis (AU)2.3761819
mean anomaly (°)311.35438
mean daily motion (°/day)0.26908180
aphelion distance (AU)2.590
period (years)3.66
P-vector [x]-0.25742136
P-vector [y]-0.92146281
P-vector [z]-0.29093047
Q-vector [x]0.96221972
Q-vector [y]-0.21680410
Q-vector [z]-0.16470942
absolute magnitude16.09
phase slope0.15
uncertainty0
referenceMPEC 2024-F74
observations used1018
oppositions20
arc length (days)12029
first opposition used1991
last opposition used2024
residual rms (arc-secs)0.77
perturbers coarse indicatorM-v
perturbers precise indicator003Ek
first observation date used1991-04-15.0
last observation date used2024-03-21.0
computer nameMPCLINUX
JD of orbit computation2456966.829716
perihelion JD uncertainty (days)1.1150E-04
argument of perihelion uncertainty (°)4.6920E-05
ascending node uncertainty (°)3.5804E-05
inclination uncertainty (°)4.4663E-06
eccentricity uncertainty 3.2675E-08
perihelion distance uncertainty (AU)7.5251E-08
Minimum Orbit Intersection Distances (in AU)
for orbit epoch: 2460400.5, reference: E2024-GB3
Mercury1.70269
Venus1.44141
Earth1.15577
Mars0.64516
Jupiter2.45195
Saturn6.46534
Uranus16.0451
Neptune27.2821

Observations

1041 total observations over interval: 1991 04 15.26276 – 2024 03 21.497457
These data are available for download (format description).

Date (UT) J2000 RA J2000 Dec Magn Location Ref
1991 04 15.26276 13 15 07.23 +04 17 09.3 19.6 V 691 – Steward Observatory, Kitt Peak-Spacewatch MPS 77767
1991 04 15.28392 13 15 06.09 +04 17 17.2 19.6 V 691 – Steward Observatory, Kitt Peak-Spacewatch MPS 77767
1991 04 15.30936 13 15 04.67 +04 17 26.7 20.0 V 691 – Steward Observatory, Kitt Peak-Spacewatch MPS 77767
1997 12 31.46781 10 40 22.56 +09 28 00.4 20.4 V 691 – Steward Observatory, Kitt Peak-Spacewatch MPS 79489
1997 12 31.49195 10 40 22.82 +09 28 03.1 20.4 V 691 – Steward Observatory, Kitt Peak-Spacewatch MPS 79489
1997 12 31.50770 10 40 22.98 +09 28 05.0 20.3 V 691 – Steward Observatory, Kitt Peak-Spacewatch MPS 79489
1998 01 10.15656 10 41 06.46 +09 54 49.3 20.3 V 910 – Caussols-ODAS MPS 3811
1998 01 10.17940 10 41 06.35 +09 54 54.8 20.4 V 910 – Caussols-ODAS MPS 3811
1998 01 10.20271 10 41 06.20 +09 54 59.7 20.4 V 910 – Caussols-ODAS MPS 3811
1998 01 28.39226 10 35 17.64 +11 35 22.8 19.6 V 691 – Steward Observatory, Kitt Peak-Spacewatch MPS 471
1998 01 28.41381 10 35 16.86 +11 35 31.9 19.8 V 691 – Steward Observatory, Kitt Peak-Spacewatch MPS 471
1998 01 28.43537 10 35 16.06 +11 35 41.3 19.8 V 691 – Steward Observatory, Kitt Peak-Spacewatch MPS 471
1998 02 02.43304 10 32 05.98 +12 13 09.2 19.6 V 691 – Steward Observatory, Kitt Peak-Spacewatch MPS 471
1998 02 02.45919 10 32 04.85 +12 13 21.5 19.6 V 691 – Steward Observatory, Kitt Peak-Spacewatch MPS 471
1998 02 02.49046 10 32 03.48 +12 13 36.1 19.8 V 691 – Steward Observatory, Kitt Peak-Spacewatch MPS 471
1999 07 13.35449 21 16 13.72 -14 23 19.8 19.2   704 – Lincoln Laboratory ETS, New Mexico MPS 54255
1999 07 13.37929 21 16 12.64 -14 23 29.0 19.5   704 – Lincoln Laboratory ETS, New Mexico MPS 54255
1999 07 13.39171 21 16 12.17 -14 23 32.3 20.0   704 – Lincoln Laboratory ETS, New Mexico MPS 54255
1999 07 13.40409 21 16 11.70 -14 23 38.0 19.7   704 – Lincoln Laboratory ETS, New Mexico MPS 54255
2002 03 10.41725 13 43 38.10 -00 33 46.0 18.7 R 699 – Lowell Observatory-LONEOS MPS 54255
2002 03 10.42980 13 43 37.95 -00 33 41.6   699 – Lowell Observatory-LONEOS MPS 54255
2002 03 10.44236 13 43 37.69 -00 33 37.3   699 – Lowell Observatory-LONEOS MPS 54255
2002 03 10.45492 13 43 37.52 -00 33 31.0   699 – Lowell Observatory-LONEOS MPS 54255
2002 04 04.42198 13 28 32.16 +02 40 51.6 19.2   608 – Haleakala-AMOS MPS 54255
2002 04 04.43265 13 28 31.59 +02 40 56.3 19.1   608 – Haleakala-AMOS MPS 54255
2002 04 04.44288 13 28 31.07 +02 41 01.0 19.2   608 – Haleakala-AMOS MPS 54255
2002 04 06.32060 13 26 55.34 +02 55 24.7 18.6   704 – Lincoln Laboratory ETS, New Mexico MPS 54255
2002 04 06.33243 13 26 54.67 +02 55 30.8 18.9   704 – Lincoln Laboratory ETS, New Mexico MPS 54255
2002 04 06.34427 13 26 54.05 +02 55 35.5 18.7   704 – Lincoln Laboratory ETS, New Mexico MPS 54255
2002 04 11.31121 13 22 33.74 +03 31 52.2 19.1   704 – Lincoln Laboratory ETS, New Mexico MPS 54255
2002 04 11.32298 13 22 33.17 +03 31 55.9 20.0   704 – Lincoln Laboratory ETS, New Mexico MPS 54255
2002 04 11.33473 13 22 32.22 +03 32 01.8 19.8   704 – Lincoln Laboratory ETS, New Mexico MPS 54255
2002 04 11.34649 13 22 31.75 +03 32 05.9 19.4   704 – Lincoln Laboratory ETS, New Mexico MPS 54255
2002 04 11.35824 13 22 31.10 +03 32 10.4 19.3   704 – Lincoln Laboratory ETS, New Mexico MPS 54255
2002 04 13.30707 13 20 47.91 +03 45 26.5 18.3   644 – Palomar Mountain/NEAT MPS 54255
2002 04 13.32928 13 20 46.67 +03 45 35.3 18.5   644 – Palomar Mountain/NEAT MPS 54255
2002 04 13.35869 13 20 45.05 +03 45 47.1 18.4   644 – Palomar Mountain/NEAT MPS 54255
2002 04 16.26156 13 18 11.92 +04 04 20.8 19.4   704 – Lincoln Laboratory ETS, New Mexico MPS 54255
2002 04 16.27561 13 18 11.12 +04 04 25.1 19.2   704 – Lincoln Laboratory ETS, New Mexico MPS 54255
2002 04 16.28964 13 18 10.35 +04 04 30.6 19.3   704 – Lincoln Laboratory ETS, New Mexico MPS 54255
2002 04 16.30368 13 18 09.59 +04 04 35.3 19.2   704 – Lincoln Laboratory ETS, New Mexico MPS 54255
2002 04 16.31772 13 18 08.81 +04 04 40.7 19.2   704 – Lincoln Laboratory ETS, New Mexico MPS 54255
2002 04 21.18231 13 13 59.04 +04 31 59.0 19.1 V 333 – Desert Eagle Observatory MPS 54255
2002 04 21.20694 13 13 57.78 +04 32 06.5 19.0 V 333 – Desert Eagle Observatory MPS 54255
2002 04 21.23164 13 13 56.43 +04 32 13.6 18.6 V 333 – Desert Eagle Observatory MPS 54255
2002 04 23.20809 13 12 19.12 +04 41 48.8 18.5   644 – Palomar Mountain/NEAT MPS 54255
2002 04 23.22999 13 12 18.01 +04 41 54.8 18.7   644 – Palomar Mountain/NEAT MPS 54255
2002 04 23.25084 13 12 16.95 +04 42 00.5 18.6   644 – Palomar Mountain/NEAT MPS 54255
2002 05 07.16300 13 02 46.18 +05 22 11.8 18.9   644 – Palomar Mountain/NEAT MPS 54219
2002 05 07.18480 13 02 45.44 +05 22 13.5 19.1   644 – Palomar Mountain/NEAT MPS 54219
2002 05 07.20593 13 02 44.71 +05 22 15.0 18.9   644 – Palomar Mountain/NEAT MPS 54219
2002 05 07.21190 13 02 44.67 +05 22 16.5 17.9   704 – Lincoln Laboratory ETS, New Mexico MPS 54219
2002 05 07.22396 13 02 44.10 +05 22 17.9 18.9   704 – Lincoln Laboratory ETS, New Mexico MPS 54219
2002 05 07.23590 13 02 43.71 +05 22 18.1 19.1   704 – Lincoln Laboratory ETS, New Mexico MPS 54219
2002 05 07.24785 13 02 43.30 +05 22 18.8 18.6   704 – Lincoln Laboratory ETS, New Mexico MPS 54219
2002 05 07.26014 13 02 42.84 +05 22 19.0 19.0   704 – Lincoln Laboratory ETS, New Mexico MPS 54219
2002 05 11.25901 13 00 47.79 +05 24 32.7 18.8 R 699 – Lowell Observatory-LONEOS MPS 54219
2002 05 11.27232 13 00 47.47 +05 24 32.4   699 – Lowell Observatory-LONEOS MPS 54219
2002 05 11.28560 13 00 47.08 +05 24 32.9   699 – Lowell Observatory-LONEOS MPS 54219
2002 05 11.29891 13 00 46.77 +05 24 32.8   699 – Lowell Observatory-LONEOS MPS 54219
2002 06 09.17221 13 00 17.26 +03 50 02.9 18.5   704 – Lincoln Laboratory ETS, New Mexico MPS 56800
2002 06 09.18610 13 00 17.54 +03 49 58.0 18.9   704 – Lincoln Laboratory ETS, New Mexico MPS 56800
2002 06 09.20018 13 00 17.79 +03 49 53.5 19.3   704 – Lincoln Laboratory ETS, New Mexico MPS 56800
2002 06 09.21407 13 00 18.17 +03 49 48.4 19.8   704 – Lincoln Laboratory ETS, New Mexico MPS 56800
2003 08 22.48699 00 34 11.32 -03 49 55.9 18.7   644 – Palomar Mountain/NEAT MPS 83164
2003 08 22.49863 00 34 11.04 -03 50 00.9 18.4   644 – Palomar Mountain/NEAT MPS 83164
2003 08 22.51025 00 34 10.82 -03 50 05.1 18.6   644 – Palomar Mountain/NEAT MPS 83164
2003 08 23.34924 00 33 53.46 -03 55 51.8 19.4 C 704 – Lincoln Laboratory ETS, New Mexico MPS 290980
2003 08 23.36139 00 33 53.20 -03 55 56.8 19.2 C 704 – Lincoln Laboratory ETS, New Mexico MPS 290980
2003 08 23.38603 00 33 52.77 -03 56 08.5 18.2 C 704 – Lincoln Laboratory ETS, New Mexico MPS 290980
2003 08 26.35309 00 32 41.32 -04 17 20.1 18.4   704 – Lincoln Laboratory ETS, New Mexico MPS 83164
2003 08 26.36598 00 32 40.92 -04 17 25.6 18.9   704 – Lincoln Laboratory ETS, New Mexico MPS 83164
2003 08 26.37865 00 32 40.60 -04 17 31.8 18.8   704 – Lincoln Laboratory ETS, New Mexico MPS 83164
2003 08 26.39192 00 32 40.22 -04 17 37.3 18.5   704 – Lincoln Laboratory ETS, New Mexico MPS 83164
2003 08 26.40446 00 32 39.84 -04 17 42.8 18.9   704 – Lincoln Laboratory ETS, New Mexico MPS 83164
2003 09 01.30398 00 29 37.28 -05 03 09.5 18.7   704 – Lincoln Laboratory ETS, New Mexico MPS 83886
2003 09 01.31578 00 29 36.96 -05 03 15.7 19.5   704 – Lincoln Laboratory ETS, New Mexico MPS 83886
2003 09 01.32768 00 29 36.45 -05 03 22.2 19.3   704 – Lincoln Laboratory ETS, New Mexico MPS 83886
2003 09 01.33957 00 29 35.92 -05 03 26.8 19.7   704 – Lincoln Laboratory ETS, New Mexico MPS 83886
2003 09 01.35166 00 29 35.38 -05 03 32.7 19.2   704 – Lincoln Laboratory ETS, New Mexico MPS 83886
2003 09 16.27866 00 18 41.02 -07 08 05.8 18.6 R 699 – Lowell Observatory-LONEOS MPS 84967
2003 09 16.29851 00 18 40.04 -07 08 14.8   699 – Lowell Observatory-LONEOS MPS 84967
2003 09 16.31851 00 18 39.04 -07 08 23.9   699 – Lowell Observatory-LONEOS MPS 84967
2003 09 16.33851 00 18 37.81 -07 08 35.4   699 – Lowell Observatory-LONEOS MPS 84967
2003 09 19.32013 00 16 05.06 -07 33 12.7 18.6 R 699 – Lowell Observatory-LONEOS MPS 84967
2003 09 19.33343 00 16 04.31 -07 33 19.3   699 – Lowell Observatory-LONEOS MPS 84967
2003 09 19.34665 00 16 03.60 -07 33 26.3   699 – Lowell Observatory-LONEOS MPS 84967
